Time,TemperatureF,DewpointF,PressureIn,WindDirection,WindDirectionDegrees,WindSpeedMPH,WindSpeedGustMPH,Humidity,HourlyPrecipIn,Conditions,Clouds,dailyrainin,SoftwareType,DateUTC
2013-04-23 00:01:00,36.7,29.8,30.55,NNE,25,2.0,4.0,76,0.00,,,0.00,Wunderground v.1.15,2013-04-23 04:01:00,
2013-04-23 00:03:00,36.7,29.8,30.55,NW,325,1.0,4.0,76,0.00,,,0.00,Wunderground v.1.15,2013-04-23 04:03:00,
2013-04-23 00:06:00,36.6,30.1,30.56,NNW,340,2.0,4.0,77,0.00,,,0.00,Wunderground v.1.15,2013-04-23 04:06:00,
2013-04-23 00:10:00,36.5,29.7,30.56,ENE,58,4.0,4.0,76,0.00,,,0.00,Wunderground v.1.15,2013-04-23 04:10:00,
2013-04-23 00:15:00,36.5,29.7,30.55,North,352,1.0,4.0,76,0.00,,,0.00,Wunderground v.1.15,2013-04-23 04:15:00,
2013-04-23 00:21:00,36.5,29.7,30.55,NNW,346,0.0,4.0,76,0.00,,,0.00,Wunderground v.1.15,2013-04-23 04:21:00,
2013-04-23 00:27:00,36.4,29.9,30.55,North,358,3.0,4.0,77,0.00,,,0.00,Wunderground v.1.15,2013-04-23 04:27:00,
2013-04-23 00:32:00,36.4,30.0,30.55,NE,46,2.0,4.0,77,0.00,,,0.00,weatherlink.com 1.10,2013-04-23 04:32:00,
2013-04-23 00:38:00,36.4,29.9,30.54,ENE,58,3.0,3.0,77,0.00,,,0.00,Wunderground v.1.15,2013-04-23 04:38:00,
2013-04-23 00:44:00,36.4,29.9,30.55,NE,35,3.0,3.0,77,0.00,,,0.00,Wunderground v.1.15,2013-04-23 04:44:00,
2013-04-23 00:50:00,36.4,29.9,30.54,NW,326,2.0,2.0,77,0.00,,,0.00,Wunderground v.1.15,2013-04-23 04:50:00,
2013-04-23 00:55:00,36.4,29.9,30.54,NNW,327,2.0,3.0,77,0.00,,,0.00,Wunderground v.1.15,2013-04-23 04:55:00,
2013-04-23 01:01:00,36.4,29.9,30.54,NW,325,1.0,2.0,77,0.00,,,0.00,Wunderground v.1.15,2013-04-23 05:01:00,
2013-04-23 01:06:00,36.3,30.1,30.53,North,7,2.0,3.0,78,0.00,,,0.00,Wunderground v.1.15,2013-04-23 05:06:00,
2013-04-23 01:12:00,36.3,30.1,30.53,NNE,30,1.0,3.0,78,0.00,,,0.00,Wunderground v.1.15,2013-04-23 05:12:00,
2013-04-23 01:18:00,36.3,30.1,30.53,North,354,1.0,3.0,78,0.00,,,0.00,Wunderground v.1.15,2013-04-23 05:18:00,
2013-04-23 01:23:00,36.2,30.0,30.53,NNE,13,3.0,4.0,78,0.00,,,0.00,Wunderground v.1.15,2013-04-23 05:23:00,
2013-04-23 01:29:00,36.1,30.2,30.52,NW,319,1.0,4.0,79,0.00,,,0.00,Wunderground v.1.15,2013-04-23 05:29:00,
2013-04-23 01:35:00,36.1,30.2,30.53,NNW,330,0.0,2.0,79,0.00,,,0.00,Wunderground v.1.15,2013-04-23 05:35:00,
2013-04-23 01:41:00,36.0,30.1,30.52,NNW,334,1.0,1.0,79,0.00,,,0.00,Wunderground v.1.15,2013-04-23 05:41:00,
2013-04-23 01:46:00,36.0,30.4,30.53,NW,316,1.0,2.0,80,0.00,,,0.00,Wunderground v.1.15,2013-04-23 05:46:00,
2013-04-23 01:52:00,36.0,30.1,30.52,NNE,15,0.0,2.0,79,0.00,,,0.00,Wunderground v.1.15,2013-04-23 05:52:00,
2013-04-23 01:58:00,36.1,30.2,30.51,NNE,12,1.0,4.0,79,0.00,,,0.00,Wunderground v.1.15,2013-04-23 05:58:00,
2013-04-23 02:03:00,36.1,30.2,30.51,NNW,347,0.0,2.0,79,0.00,,,0.00,Wunderground v.1.15,2013-04-23 06:03:00,
2013-04-23 02:08:00,36.1,30.2,30.51,NW,325,3.0,3.0,79,0.00,,,0.00,Wunderground v.1.15,2013-04-23 06:08:00,
2013-04-23 02:13:00,36.2,30.3,30.51,NNW,328,3.0,4.0,79,0.00,,,0.00,Wunderground v.1.15,2013-04-23 06:13:00,
2013-04-23 02:18:00,36.4,30.5,30.50,North,350,2.0,5.0,79,0.00,,,0.00,Wunderground v.1.15,2013-04-23 06:18:00,
2013-04-23 02:23:00,36.4,30.5,30.50,NNW,330,2.0,4.0,79,0.00,,,0.00,Wunderground v.1.15,2013-04-23 06:23:00,
2013-04-23 02:28:00,36.4,30.5,30.50,NW,326,3.0,4.0,79,0.00,,,0.00,Wunderground v.1.15,2013-04-23 06:28:00,
2013-04-23 02:33:00,36.5,30.3,30.50,NW,321,3.0,4.0,78,0.00,,,0.00,Wunderground v.1.15,2013-04-23 06:33:00,
2013-04-23 02:38:00,36.5,30.3,30.50,ENE,65,1.0,5.0,78,0.00,,,0.00,Wunderground v.1.15,2013-04-23 06:38:00,
2013-04-23 02:43:00,36.5,30.6,30.49,NW,307,4.0,4.0,79,0.00,,,0.00,Wunderground v.1.15,2013-04-23 06:43:00,
2013-04-23 02:48:00,36.5,30.6,30.50,WNW,301,3.0,4.0,79,0.00,,,0.00,Wunderground v.1.15,2013-04-23 06:48:00,
2013-04-23 02:53:00,36.3,30.7,30.49,WNW,301,2.0,4.0,80,0.00,,,0.00,Wunderground v.1.15,2013-04-23 06:53:00,
2013-04-23 02:58:00,36.1,30.8,30.49,NW,318,2.0,4.0,81,0.00,,,0.00,Wunderground v.1.15,2013-04-23 06:58:00,
2013-04-23 03:03:00,36.0,30.7,30.49,NW,308,3.0,4.0,81,0.00,,,0.00,Wunderground v.1.15,2013-04-23 07:03:00,
2013-04-23 03:08:00,35.9,30.9,30.49,NW,314,4.0,5.0,82,0.00,,,0.00,Wunderground v.1.15,2013-04-23 07:08:00,
2013-04-23 03:13:00,35.7,30.7,30.49,NW,305,3.0,4.0,82,0.00,,,0.00,Wunderground v.1.15,2013-04-23 07:13:00,
2013-04-23 03:18:00,35.6,30.6,30.49,NW,321,4.0,4.0,82,0.00,,,0.00,Wunderground v.1.15,2013-04-23 07:18:00,
2013-04-23 03:23:00,35.5,30.8,30.48,NW,311,3.0,5.0,83,0.00,,,0.00,Wunderground v.1.15,2013-04-23 07:23:00,
2013-04-23 03:28:00,35.4,30.8,30.48,NW,311,4.0,6.0,83,0.00,,,0.00,Wunderground v.1.15,2013-04-23 07:28:00,
2013-04-23 03:33:00,35.3,30.7,30.47,NW,316,5.0,6.0,83,0.00,,,0.00,Wunderground v.1.15,2013-04-23 07:33:00,
2013-04-23 03:38:00,35.2,30.6,30.47,NNW,347,2.0,6.0,83,0.00,,,0.00,Wunderground v.1.15,2013-04-23 07:38:00,
2013-04-23 03:43:00,35.2,30.9,30.47,NW,313,4.0,5.0,84,0.00,,,0.00,Wunderground v.1.15,2013-04-23 07:43:00,
2013-04-23 03:48:00,35.1,30.8,30.47,NW,326,5.0,5.0,84,0.00,,,0.00,Wunderground v.1.15,2013-04-23 07:48:00,
2013-04-23 03:53:00,35.1,30.8,30.47,NW,320,3.0,5.0,84,0.00,,,0.00,Wunderground v.1.15,2013-04-23 07:53:00,
2013-04-23 03:58:00,35.0,30.7,30.47,NW,321,5.0,5.0,84,0.00,,,0.00,Wunderground v.1.15,2013-04-23 07:58:00,
2013-04-23 04:03:00,34.9,30.6,30.47,NW,313,4.0,5.0,84,0.00,,,0.00,Wunderground v.1.15,2013-04-23 08:03:00,
2013-04-23 04:08:00,34.9,30.6,30.47,NW,322,4.0,5.0,84,0.00,,,0.00,Wunderground v.1.15,2013-04-23 08:08:00,
2013-04-23 04:13:00,34.9,30.6,30.47,NW,322,3.0,5.0,84,0.00,,,0.00,Wunderground v.1.15,2013-04-23 08:13:00,
2013-04-23 04:18:00,34.9,30.8,30.47,WNW,291,2.0,5.0,85,0.00,,,0.00,Wunderground v.1.15,2013-04-23 08:18:00,
2013-04-23 04:23:00,34.8,30.8,30.46,NW,321,3.0,4.0,85,0.00,,,0.00,Wunderground v.1.15,2013-04-23 08:23:00,
2013-04-23 04:28:00,34.8,30.8,30.47,NW,316,2.0,4.0,85,0.00,,,0.00,Wunderground v.1.15,2013-04-23 08:28:00,
2013-04-23 04:33:00,34.9,30.8,30.47,NW,325,2.0,3.0,85,0.00,,,0.00,Wunderground v.1.15,2013-04-23 08:33:00,
2013-04-23 04:38:00,34.9,30.8,30.47,NW,307,2.0,3.0,85,0.00,,,0.00,Wunderground v.1.15,2013-04-23 08:38:00,
2013-04-23 04:43:00,35.0,30.9,30.47,NW,314,2.0,3.0,85,0.00,,,0.00,Wunderground v.1.15,2013-04-23 08:43:00,
2013-04-23 04:48:00,35.0,30.9,30.47,NW,317,2.0,3.0,85,0.00,,,0.00,Wunderground v.1.15,2013-04-23 08:48:00,
2013-04-23 04:53:00,35.1,31.0,30.47,NW,319,3.0,3.0,85,0.00,,,0.00,Wunderground v.1.15,2013-04-23 08:53:00,
2013-04-23 04:58:00,35.1,31.0,30.47,NW,314,2.0,3.0,85,0.00,,,0.00,Wunderground v.1.15,2013-04-23 08:58:00,
2013-04-23 05:03:00,35.1,31.0,30.46,NW,321,3.0,3.0,85,0.00,,,0.00,Wunderground v.1.15,2013-04-23 09:03:00,
2013-04-23 05:08:00,35.2,31.1,30.46,NW,316,3.0,4.0,85,0.00,,,0.00,Wunderground v.1.15,2013-04-23 09:08:00,
2013-04-23 05:13:00,35.3,30.9,30.46,NW,316,2.0,3.0,84,0.00,,,0.00,Wunderground v.1.15,2013-04-23 09:13:00,
2013-04-23 05:18:00,35.3,30.9,30.46,NW,311,2.0,3.0,84,0.00,,,0.00,Wunderground v.1.15,2013-04-23 09:18:00,
2013-04-23 05:23:00,35.4,31.0,30.46,NNW,348,2.0,3.0,84,0.00,,,0.00,Wunderground v.1.15,2013-04-23 09:23:00,
2013-04-23 05:28:00,35.4,31.0,30.46,NW,307,3.0,3.0,84,0.00,,,0.00,Wunderground v.1.15,2013-04-23 09:28:00,
2013-04-23 05:34:00,35.5,31.1,30.46,NNW,330,2.0,3.0,84,0.00,,,0.00,Wunderground v.1.15,2013-04-23 09:34:00,
2013-04-23 05:39:00,35.5,31.1,30.46,NW,311,3.0,4.0,84,0.00,,,0.00,Wunderground v.1.15,2013-04-23 09:39:00,
2013-04-23 05:44:00,35.5,31.1,30.46,NW,304,3.0,3.0,84,0.00,,,0.00,Wunderground v.1.15,2013-04-23 09:44:00,
2013-04-23 05:49:00,35.6,31.2,30.46,WNW,300,3.0,4.0,84,0.00,,,0.00,Wunderground v.1.15,2013-04-23 09:49:00,
2013-04-23 05:54:00,35.6,31.2,30.46,NW,312,2.0,4.0,84,0.00,,,0.00,Wunderground v.1.15,2013-04-23 09:54:00,
2013-04-23 05:59:00,35.6,31.2,30.46,WNW,300,2.0,4.0,84,0.00,,,0.00,Wunderground v.1.15,2013-04-23 09:59:00,
2013-04-23 06:04:00,35.6,31.2,30.45,NW,317,4.0,4.0,84,0.00,,,0.00,Wunderground v.1.15,2013-04-23 10:04:00,
2013-04-23 06:09:00,35.7,31.3,30.45,NW,323,2.0,4.0,84,0.00,,,0.00,Wunderground v.1.15,2013-04-23 10:09:00,
2013-04-23 06:14:00,35.6,31.2,30.45,NW,307,3.0,4.0,84,0.00,,,0.00,Wunderground v.1.15,2013-04-23 10:14:00,
2013-04-23 06:19:00,35.7,31.3,30.46,NW,320,2.0,4.0,84,0.00,,,0.00,Wunderground v.1.15,2013-04-23 10:19:00,
2013-04-23 06:24:00,35.7,31.3,30.46,WNW,293,2.0,5.0,84,0.00,,,0.00,Wunderground v.1.15,2013-04-23 10:24:00,
2013-04-23 06:29:00,35.7,31.3,30.46,NW,316,3.0,5.0,84,0.00,,,0.00,Wunderground v.1.15,2013-04-23 10:29:00,
2013-04-23 06:34:00,35.7,31.3,30.45,NW,316,4.0,6.0,84,0.00,,,0.00,Wunderground v.1.15,2013-04-23 10:34:00,
2013-04-23 06:39:00,35.7,31.3,30.46,WNW,301,5.0,6.0,84,0.00,,,0.00,Wunderground v.1.15,2013-04-23 10:39:00,
2013-04-23 06:44:00,35.8,31.4,30.45,NW,304,4.0,6.0,84,0.00,,,0.00,Wunderground v.1.15,2013-04-23 10:44:00,
2013-04-23 06:49:00,35.8,31.4,30.45,WNW,284,3.0,6.0,84,0.00,,,0.00,Wunderground v.1.15,2013-04-23 10:49:00,
2013-04-23 06:54:00,35.8,31.4,30.45,NW,316,2.0,6.0,84,0.00,,,0.00,Wunderground v.1.15,2013-04-23 10:54:00,
2013-04-23 06:59:00,35.8,31.4,30.45,NW,311,5.0,6.0,84,0.00,,,0.00,Wunderground v.1.15,2013-04-23 10:59:00,
2013-04-23 07:04:00,35.8,31.4,30.45,WNW,302,4.0,6.0,84,0.00,,,0.00,Wunderground v.1.15,2013-04-23 11:04:00,
2013-04-23 07:09:00,35.8,31.4,30.45,NW,311,3.0,6.0,84,0.00,,,0.00,Wunderground v.1.15,2013-04-23 11:09:00,
2013-04-23 07:14:00,35.8,31.4,30.45,NW,321,4.0,5.0,84,0.00,,,0.00,Wunderground v.1.15,2013-04-23 11:14:00,
2013-04-23 07:19:00,35.9,31.5,30.45,NW,322,3.0,5.0,84,0.00,,,0.00,Wunderground v.1.15,2013-04-23 11:19:00,
2013-04-23 07:24:00,35.9,31.5,30.45,NW,311,4.0,6.0,84,0.00,,,0.00,Wunderground v.1.15,2013-04-23 11:24:00,
2013-04-23 07:29:00,36.0,31.6,30.45,NW,316,4.0,6.0,84,0.00,,,0.00,Wunderground v.1.15,2013-04-23 11:29:00,
2013-04-23 07:34:00,36.1,32.0,30.45,NW,305,5.0,6.0,85,0.00,,,0.00,Wunderground v.1.15,2013-04-23 11:34:00,
2013-04-23 07:39:00,36.0,31.9,30.45,North,354,5.0,8.0,85,0.00,,,0.00,Wunderground v.1.15,2013-04-23 11:39:00,
2013-04-23 07:45:00,36.1,32.0,30.45,NW,322,4.0,6.0,85,0.00,,,0.00,Wunderground v.1.15,2013-04-23 11:45:00,
2013-04-23 07:50:00,36.1,32.3,30.45,NW,308,6.0,6.0,86,0.00,,,0.00,Wunderground v.1.15,2013-04-23 11:50:00,
2013-04-23 07:55:00,36.0,32.5,30.45,NW,316,1.0,8.0,87,0.00,,,0.00,Wunderground v.1.15,2013-04-23 11:55:00,
2013-04-23 08:00:00,36.1,32.9,30.45,NNW,338,5.0,5.0,88,0.00,,,0.00,Wunderground v.1.15,2013-04-23 12:00:00,
2013-04-23 08:05:00,36.0,32.8,30.45,NW,316,5.0,6.0,88,0.00,,,0.00,Wunderground v.1.15,2013-04-23 12:05:00,
2013-04-23 08:10:00,35.9,33.0,30.45,NW,318,4.0,5.0,89,0.00,,,0.00,Wunderground v.1.15,2013-04-23 12:10:00,
2013-04-23 08:15:00,35.8,32.9,30.45,NW,319,7.0,8.0,89,0.00,,,0.00,Wunderground v.1.15,2013-04-23 12:15:00,
2013-04-23 08:20:00,35.7,33.1,30.45,North,353,4.0,5.0,90,0.00,,,0.00,Wunderground v.1.15,2013-04-23 12:20:00,
2013-04-23 08:25:00,35.7,33.3,30.45,NW,311,4.0,5.0,91,0.00,,,0.00,Wunderground v.1.15,2013-04-23 12:25:00,
2013-04-23 08:30:00,35.6,33.5,30.44,WNW,300,1.0,3.0,92,0.00,,,0.00,Wunderground v.1.15,2013-04-23 12:30:00,
2013-04-23 08:35:00,35.6,33.5,30.44,NW,316,2.0,9.0,92,0.00,,,0.00,Wunderground v.1.15,2013-04-23 12:35:00,
2013-04-23 08:40:00,35.5,33.7,30.44,NNW,330,3.0,5.0,93,0.00,,,0.00,Wunderground v.1.15,2013-04-23 12:40:00,
2013-04-23 08:45:00,35.5,33.7,30.44,NW,318,5.0,7.0,93,0.00,,,0.00,Wunderground v.1.15,2013-04-23 12:45:00,
2013-04-23 08:50:00,35.4,33.6,30.44,NW,311,5.0,5.0,93,0.00,,,0.00,Wunderground v.1.15,2013-04-23 12:50:00,
2013-04-23 08:55:00,35.4,33.8,30.43,NNW,330,2.0,6.0,94,0.00,,,0.00,Wunderground v.1.15,2013-04-23 12:55:00,
2013-04-23 09:00:00,35.5,33.9,30.43,West,279,4.0,5.0,94,0.00,,,0.00,Wunderground v.1.15,2013-04-23 13:00:00,
2013-04-23 09:05:00,35.4,33.8,30.43,NW,316,3.0,6.0,94,0.00,,,0.00,Wunderground v.1.15,2013-04-23 13:05:00,
2013-04-23 09:10:00,35.4,34.1,30.43,NW,321,4.0,6.0,95,0.00,,,0.00,Wunderground v.1.15,2013-04-23 13:10:00,
2013-04-23 09:15:00,35.4,34.1,30.43,NW,324,5.0,6.0,95,0.00,,,0.00,Wunderground v.1.15,2013-04-23 13:15:00,
2013-04-23 09:20:00,35.5,34.2,30.43,NNW,330,3.0,6.0,95,0.00,,,0.00,Wunderground v.1.15,2013-04-23 13:20:00,
2013-04-23 09:25:00,35.5,34.2,30.43,NW,307,4.0,6.0,95,0.00,,,0.00,Wunderground v.1.15,2013-04-23 13:25:00,
2013-04-23 09:30:00,35.5,34.2,30.42,NW,311,3.0,5.0,95,0.00,,,0.00,Wunderground v.1.15,2013-04-23 13:30:00,
2013-04-23 09:35:00,35.6,34.3,30.42,NW,325,3.0,5.0,95,0.00,,,0.00,Wunderground v.1.15,2013-04-23 13:35:00,
2013-04-23 09:40:00,35.8,34.5,30.42,North,356,2.0,4.0,95,0.00,,,0.00,Wunderground v.1.15,2013-04-23 13:40:00,
2013-04-23 09:46:00,36.0,35.0,30.42,NW,305,6.0,6.0,96,0.00,,,0.00,Wunderground v.1.15,2013-04-23 13:46:00,
2013-04-23 09:51:00,36.1,35.1,30.42,NW,312,3.0,4.0,96,0.00,,,0.00,Wunderground v.1.15,2013-04-23 13:51:00,
2013-04-23 09:56:00,36.3,35.3,30.42,NW,314,3.0,5.0,96,0.00,,,0.00,Wunderground v.1.15,2013-04-23 13:56:00,
2013-04-23 10:01:00,36.5,35.5,30.42,WNW,287,2.0,3.0,96,0.00,,,0.00,Wunderground v.1.15,2013-04-23 14:01:00,
2013-04-23 10:06:00,36.6,35.6,30.42,NW,321,3.0,5.0,96,0.00,,,0.00,Wunderground v.1.15,2013-04-23 14:06:00,
2013-04-23 10:11:00,36.7,35.7,30.41,NW,316,5.0,7.0,96,0.00,,,0.00,Wunderground v.1.15,2013-04-23 14:11:00,
2013-04-23 10:16:00,36.8,35.5,30.41,NW,322,5.0,7.0,95,0.00,,,0.00,Wunderground v.1.15,2013-04-23 14:16:00,
2013-04-23 10:21:00,36.9,35.6,30.41,NNE,15,5.0,5.0,95,0.00,,,0.00,Wunderground v.1.15,2013-04-23 14:21:00,
2013-04-23 10:26:00,37.0,35.7,30.41,NW,326,4.0,6.0,95,0.00,,,0.00,Wunderground v.1.15,2013-04-23 14:26:00,
2013-04-23 10:31:00,37.1,35.8,30.41,NW,316,4.0,7.0,95,0.00,,,0.00,Wunderground v.1.15,2013-04-23 14:31:00,
2013-04-23 10:36:00,37.2,35.9,30.41,NW,326,2.0,7.0,95,0.00,,,0.00,Wunderground v.1.15,2013-04-23 14:36:00,
2013-04-23 10:41:00,37.2,35.9,30.41,North,1,4.0,5.0,95,0.00,,,0.00,Wunderground v.1.15,2013-04-23 14:41:00,
2013-04-23 10:46:00,37.2,35.9,30.41,WNW,295,1.0,6.0,95,0.00,,,0.00,Wunderground v.1.15,2013-04-23 14:46:00,
2013-04-23 10:51:00,37.2,35.9,30.41,WNW,302,5.0,7.0,95,0.00,,,0.00,Wunderground v.1.15,2013-04-23 14:51:00,
2013-04-23 10:56:00,37.3,36.0,30.41,NW,316,5.0,7.0,95,0.00,,,0.00,Wunderground v.1.15,2013-04-23 14:56:00,
2013-04-23 11:01:00,37.3,36.0,30.41,NW,325,5.0,5.0,95,0.00,,,0.00,Wunderground v.1.15,2013-04-23 15:01:00,
2013-04-23 11:06:00,37.3,36.0,30.40,NW,316,6.0,7.0,95,0.00,,,0.00,Wunderground v.1.15,2013-04-23 15:06:00,
2013-04-23 11:11:00,37.3,36.0,30.40,NW,316,7.0,7.0,95,0.00,,,0.00,Wunderground v.1.15,2013-04-23 15:11:00,
2013-04-23 11:16:00,37.3,36.0,30.40,NNW,345,2.0,7.0,95,0.00,,,0.00,Wunderground v.1.15,2013-04-23 15:16:00,
2013-04-23 11:21:00,37.5,36.2,30.40,NW,321,2.0,5.0,95,0.00,,,0.00,Wunderground v.1.15,2013-04-23 15:21:00,
2013-04-23 11:26:00,37.6,36.6,30.40,NW,319,4.0,5.0,96,0.00,,,0.00,Wunderground v.1.15,2013-04-23 15:26:00,
2013-04-23 11:31:00,37.7,36.7,30.40,NW,308,3.0,4.0,96,0.00,,,0.00,Wunderground v.1.15,2013-04-23 15:31:00,
2013-04-23 11:36:00,37.6,36.3,30.40,NW,320,3.0,6.0,95,0.00,,,0.00,Wunderground v.1.15,2013-04-23 15:36:00,
2013-04-23 11:41:00,37.7,36.4,30.40,NW,314,4.0,7.0,95,0.00,,,0.00,Wunderground v.1.15,2013-04-23 15:41:00,
2013-04-23 11:46:00,37.7,36.4,30.40,NW,313,4.0,7.0,95,0.00,,,0.00,Wunderground v.1.15,2013-04-23 15:46:00,
2013-04-23 11:51:00,37.7,36.4,30.39,NW,322,5.0,6.0,95,0.00,,,0.00,Wunderground v.1.15,2013-04-23 15:51:00,
2013-04-23 11:57:00,37.8,36.5,30.39,NW,314,5.0,8.0,95,0.00,,,0.00,Wunderground v.1.15,2013-04-23 15:57:00,
2013-04-23 12:02:00,37.8,36.5,30.39,NW,314,6.0,7.0,95,0.00,,,0.00,Wunderground v.1.15,2013-04-23 16:02:00,
2013-04-23 12:07:00,38.0,37.0,30.38,NNW,333,1.0,7.0,96,0.00,,,0.00,Wunderground v.1.15,2013-04-23 16:07:00,
2013-04-23 12:12:00,38.0,37.0,30.38,NW,316,7.0,7.0,96,0.00,,,0.00,Wunderground v.1.15,2013-04-23 16:12:00,
2013-04-23 12:17:00,38.1,37.1,30.38,NNE,13,4.0,7.0,96,0.00,,,0.00,Wunderground v.1.15,2013-04-23 16:17:00,
2013-04-23 12:22:00,38.0,36.7,30.38,NW,325,6.0,6.0,95,0.00,,,0.00,Wunderground v.1.15,2013-04-23 16:22:00,
2013-04-23 12:27:00,38.0,36.7,30.37,NNW,338,5.0,8.0,95,0.00,,,0.00,Wunderground v.1.15,2013-04-23 16:27:00,
2013-04-23 12:32:00,37.9,36.6,30.37,NW,320,6.0,7.0,95,0.00,,,0.00,Wunderground v.1.15,2013-04-23 16:32:00,
2013-04-23 12:37:00,38.0,36.7,30.37,NW,325,2.0,9.0,95,0.00,,,0.00,Wunderground v.1.15,2013-04-23 16:37:00,
2013-04-23 12:42:00,38.1,36.8,30.37,NNW,336,4.0,7.0,95,0.00,,,0.00,Wunderground v.1.15,2013-04-23 16:42:00,
2013-04-23 12:47:00,38.1,36.8,30.36,NW,308,7.0,8.0,95,0.00,,,0.00,Wunderground v.1.15,2013-04-23 16:47:00,
2013-04-23 12:52:00,38.0,36.7,30.36,NW,319,5.0,9.0,95,0.00,,,0.00,Wunderground v.1.15,2013-04-23 16:52:00,
2013-04-23 12:57:00,38.0,36.7,30.36,NW,313,5.0,9.0,95,0.00,,,0.00,Wunderground v.1.15,2013-04-23 16:57:00,
2013-04-23 13:02:00,38.0,36.7,30.36,NW,322,5.0,5.0,95,0.00,,,0.00,Wunderground v.1.15,2013-04-23 17:02:00,
2013-04-23 13:07:00,38.0,36.7,30.35,NW,316,5.0,7.0,95,0.00,,,0.00,Wunderground v.1.15,2013-04-23 17:07:00,
2013-04-23 13:12:00,38.0,36.7,30.35,NW,323,5.0,6.0,95,0.00,,,0.00,Wunderground v.1.15,2013-04-23 17:12:00,
2013-04-23 13:17:00,38.1,36.8,30.35,NW,319,3.0,7.0,95,0.00,,,0.00,Wunderground v.1.15,2013-04-23 17:17:00,
2013-04-23 13:22:00,38.2,36.9,30.35,NW,319,3.0,6.0,95,0.00,,,0.00,Wunderground v.1.15,2013-04-23 17:22:00,
2013-04-23 13:27:00,38.2,36.9,30.35,NW,317,3.0,8.0,95,0.00,,,0.00,Wunderground v.1.15,2013-04-23 17:27:00,
2013-04-23 13:32:00,38.2,36.9,30.34,NNE,15,5.0,6.0,95,0.00,,,0.00,Wunderground v.1.15,2013-04-23 17:32:00,
2013-04-23 13:37:00,38.3,37.0,30.34,NW,316,4.0,10.0,95,0.00,,,0.00,Wunderground v.1.15,2013-04-23 17:37:00,
2013-04-23 13:42:00,38.3,37.0,30.33,NW,322,3.0,8.0,95,0.00,,,0.00,Wunderground v.1.15,2013-04-23 17:42:00,
2013-04-23 13:47:00,38.4,37.1,30.33,NNW,332,5.0,8.0,95,0.00,,,0.00,Wunderground v.1.15,2013-04-23 17:47:00,
2013-04-23 13:52:00,38.4,37.4,30.33,NW,326,3.0,5.0,96,0.00,,,0.00,Wunderground v.1.15,2013-04-23 17:52:00,
2013-04-23 13:57:00,38.5,37.5,30.33,NW,316,0.0,6.0,96,0.00,,,0.00,Wunderground v.1.15,2013-04-23 17:57:00,
2013-04-23 14:02:00,38.6,37.6,30.33,NNW,329,5.0,6.0,96,0.00,,,0.00,Wunderground v.1.15,2013-04-23 18:02:00,
2013-04-23 14:08:00,38.6,37.6,30.33,NNE,15,4.0,6.0,96,0.00,,,0.00,Wunderground v.1.15,2013-04-23 18:08:00,
2013-04-23 14:13:00,38.7,37.7,30.33,NW,311,5.0,6.0,96,0.00,,,0.00,Wunderground v.1.15,2013-04-23 18:13:00,
2013-04-23 14:18:00,38.7,37.7,30.32,NW,310,4.0,7.0,96,0.00,,,0.00,Wunderground v.1.15,2013-04-23 18:18:00,
2013-04-23 14:23:00,38.7,37.7,30.32,NNW,328,3.0,8.0,96,0.00,,,0.00,Wunderground v.1.15,2013-04-23 18:23:00,
2013-04-23 14:28:00,38.8,37.8,30.32,WNW,297,6.0,8.0,96,0.00,,,0.00,Wunderground v.1.15,2013-04-23 18:28:00,
2013-04-23 14:33:00,38.9,37.9,30.32,NNW,336,4.0,5.0,96,0.00,,,0.00,Wunderground v.1.15,2013-04-23 18:33:00,
2013-04-23 14:38:00,38.9,37.9,30.31,NW,313,4.0,6.0,96,0.00,,,0.00,Wunderground v.1.15,2013-04-23 18:38:00,
2013-04-23 14:43:00,38.9,37.9,30.31,NNW,328,5.0,9.0,96,0.00,,,0.00,Wunderground v.1.15,2013-04-23 18:43:00,
2013-04-23 14:48:00,38.9,37.9,30.31,NNW,348,3.0,9.0,96,0.00,,,0.00,Wunderground v.1.15,2013-04-23 18:48:00,
2013-04-23 14:53:00,39.0,38.0,30.31,NNW,333,5.0,8.0,96,0.00,,,0.00,Wunderground v.1.15,2013-04-23 18:53:00,
2013-04-23 14:58:00,39.0,38.0,30.30,NW,319,6.0,8.0,96,0.00,,,0.00,Wunderground v.1.15,2013-04-23 18:58:00,
2013-04-23 15:03:00,39.1,38.1,30.30,WNW,298,4.0,9.0,96,0.00,,,0.00,Wunderground v.1.15,2013-04-23 19:03:00,
2013-04-23 15:08:00,39.1,38.1,30.29,North,359,5.0,10.0,96,0.00,,,0.00,Wunderground v.1.15,2013-04-23 19:08:00,
2013-04-23 15:13:00,39.2,38.2,30.29,North,349,3.0,8.0,96,0.00,,,0.00,Wunderground v.1.15,2013-04-23 19:13:00,
2013-04-23 15:18:00,39.2,38.2,30.29,NW,326,3.0,8.0,96,0.00,,,0.00,Wunderground v.1.15,2013-04-23 19:18:00,
2013-04-23 15:23:00,39.2,38.2,30.28,NW,322,5.0,5.0,96,0.00,,,0.00,Wunderground v.1.15,2013-04-23 19:23:00,
2013-04-23 15:28:00,39.2,38.2,30.28,NW,311,5.0,5.0,96,0.00,,,0.00,Wunderground v.1.15,2013-04-23 19:28:00,
2013-04-23 15:33:00,39.2,38.2,30.28,NNW,329,5.0,5.0,96,0.00,,,0.00,Wunderground v.1.15,2013-04-23 19:33:00,
2013-04-23 15:38:00,39.2,38.2,30.28,WNW,302,5.0,5.0,96,0.00,,,0.00,Wunderground v.1.15,2013-04-23 19:38:00,
2013-04-23 15:43:00,39.2,38.2,30.28,NNW,333,5.0,7.0,96,0.00,,,0.00,Wunderground v.1.15,2013-04-23 19:43:00,
2013-04-23 15:48:00,39.2,38.2,30.27,NW,316,4.0,7.0,96,0.00,,,0.00,Wunderground v.1.15,2013-04-23 19:48:00,
2013-04-23 15:53:00,39.2,38.2,30.27,NNW,334,3.0,7.0,96,0.00,,,0.00,Wunderground v.1.15,2013-04-23 19:53:00,
2013-04-23 15:58:00,39.3,38.3,30.27,NNW,333,4.0,7.0,96,0.00,,,0.00,Wunderground v.1.15,2013-04-23 19:58:00,
2013-04-23 16:03:00,39.3,38.3,30.27,North,352,3.0,9.0,96,0.00,,,0.00,Wunderground v.1.15,2013-04-23 20:03:00,
2013-04-23 16:08:00,39.4,38.4,30.27,NW,321,2.0,9.0,96,0.00,,,0.00,Wunderground v.1.15,2013-04-23 20:08:00,
2013-04-23 16:13:00,39.4,38.4,30.27,NW,324,4.0,5.0,96,0.00,,,0.00,Wunderground v.1.15,2013-04-23 20:13:00,
2013-04-23 16:18:00,39.4,38.4,30.27,NNW,329,2.0,5.0,96,0.00,,,0.00,Wunderground v.1.15,2013-04-23 20:18:00,
2013-04-23 16:23:00,39.4,38.4,30.27,NNW,330,3.0,9.0,96,0.00,,,0.00,Wunderground v.1.15,2013-04-23 20:23:00,
2013-04-23 16:28:00,39.4,38.4,30.27,North,352,5.0,9.0,96,0.00,,,0.00,Wunderground v.1.15,2013-04-23 20:28:00,
2013-04-23 16:33:00,39.4,38.4,30.27,NNW,342,5.0,7.0,96,0.00,,,0.00,Wunderground v.1.15,2013-04-23 20:33:00,
2013-04-23 16:38:00,39.4,38.4,30.27,NNW,342,4.0,10.0,96,0.00,,,0.00,Wunderground v.1.15,2013-04-23 20:38:00,
2013-04-23 16:44:00,39.5,38.5,30.27,NW,311,7.0,8.0,96,0.00,,,0.00,Wunderground v.1.15,2013-04-23 20:44:00,
2013-04-23 16:49:00,39.5,38.2,30.28,NNW,330,6.0,11.0,95,0.00,,,0.00,Wunderground v.1.15,2013-04-23 20:49:00,
2013-04-23 16:53:00,39.6,38.3,30.27,NW,307,8.0,10.0,95,0.00,,,0.00,Wunderground v.1.15,2013-04-23 20:53:00,
2013-04-23 16:58:00,39.6,38.3,30.27,North,358,8.0,12.0,95,0.00,,,0.00,Wunderground v.1.15,2013-04-23 20:58:00,
2013-04-23 17:03:00,39.7,38.4,30.27,NNW,330,5.0,11.0,95,0.00,,,0.00,Wunderground v.1.15,2013-04-23 21:03:00,
2013-04-23 17:08:00,39.7,38.4,30.27,North,10,4.0,11.0,95,0.00,,,0.00,Wunderground v.1.15,2013-04-23 21:08:00,
2013-04-23 17:14:00,39.7,38.4,30.26,NW,324,6.0,8.0,95,0.00,,,0.00,Wunderground v.1.15,2013-04-23 21:14:00,
2013-04-23 17:19:00,39.7,38.4,30.26,NNW,327,5.0,8.0,95,0.00,,,0.00,Wunderground v.1.15,2013-04-23 21:19:00,
2013-04-23 17:24:00,39.6,38.3,30.26,NW,319,6.0,7.0,95,0.00,,,0.00,Wunderground v.1.15,2013-04-23 21:24:00,
2013-04-23 17:29:00,39.6,38.3,30.26,NW,305,5.0,9.0,95,0.00,,,0.00,Wunderground v.1.15,2013-04-23 21:29:00,
2013-04-23 17:34:00,39.6,38.3,30.26,NW,324,6.0,7.0,95,0.00,,,0.00,Wunderground v.1.15,2013-04-23 21:34:00,
2013-04-23 17:39:00,39.6,38.3,30.25,NW,315,6.0,8.0,95,0.00,,,0.00,Wunderground v.1.15,2013-04-23 21:39:00,
2013-04-23 17:44:00,39.6,38.3,30.25,ESE,113,2.0,6.0,95,0.00,,,0.00,Wunderground v.1.15,2013-04-23 21:44:00,
2013-04-23 17:49:00,39.7,38.4,30.25,NNW,338,4.0,6.0,95,0.00,,,0.00,Wunderground v.1.15,2013-04-23 21:49:00,
2013-04-23 17:54:00,39.6,38.3,30.24,NNW,328,3.0,6.0,95,0.00,,,0.00,Wunderground v.1.15,2013-04-23 21:54:00,
2013-04-23 17:59:00,39.6,38.3,30.24,NW,308,6.0,7.0,95,0.00,,,0.00,Wunderground v.1.15,2013-04-23 21:59:00,
2013-04-23 18:04:00,39.5,38.2,30.24,NW,317,1.0,7.0,95,0.00,,,0.00,Wunderground v.1.15,2013-04-23 22:04:00,
2013-04-23 18:09:00,39.5,38.2,30.24,WNW,297,4.0,13.0,95,0.00,,,0.00,Wunderground v.1.15,2013-04-23 22:09:00,
2013-04-23 18:14:00,39.5,38.2,30.23,NNW,338,5.0,10.0,95,0.00,,,0.00,Wunderground v.1.15,2013-04-23 22:14:00,
2013-04-23 18:19:00,39.5,38.2,30.23,NW,321,5.0,10.0,95,0.00,,,0.00,Wunderground v.1.15,2013-04-23 22:19:00,
2013-04-23 18:24:00,39.5,38.2,30.23,NNW,336,6.0,10.0,95,0.00,,,0.00,Wunderground v.1.15,2013-04-23 22:24:00,
2013-04-23 18:29:00,39.5,38.2,30.23,North,9,4.0,11.0,95,0.00,,,0.00,Wunderground v.1.15,2013-04-23 22:29:00,
2013-04-23 18:34:00,39.5,38.2,30.23,WNW,290,4.0,10.0,95,0.00,,,0.00,Wunderground v.1.15,2013-04-23 22:34:00,
2013-04-23 18:39:00,39.5,38.2,30.23,North,360,7.0,10.0,95,0.00,,,0.00,Wunderground v.1.15,2013-04-23 22:39:00,
2013-04-23 18:45:00,39.4,37.8,30.23,NNE,15,7.0,11.0,94,0.00,,,0.00,Wunderground v.1.15,2013-04-23 22:45:00,
2013-04-23 18:49:00,39.4,38.1,30.22,ENE,58,5.0,12.0,95,0.00,,,0.00,Wunderground v.1.15,2013-04-23 22:49:00,
2013-04-23 18:55:00,39.4,38.1,30.22,NW,324,3.0,8.0,95,0.00,,,0.00,Wunderground v.1.15,2013-04-23 22:55:00,
2013-04-23 19:00:00,39.4,38.1,30.23,North,350,4.0,5.0,95,0.00,,,0.00,Wunderground v.1.15,2013-04-23 23:00:00,
2013-04-23 19:05:00,39.4,38.1,30.22,North,356,4.0,9.0,95,0.00,,,0.00,Wunderground v.1.15,2013-04-23 23:05:00,
2013-04-23 19:10:00,39.4,38.1,30.22,NNW,340,4.0,6.0,95,0.00,,,0.00,Wunderground v.1.15,2013-04-23 23:10:00,
2013-04-23 19:15:00,39.4,38.1,30.22,NNW,333,6.0,9.0,95,0.00,,,0.00,Wunderground v.1.15,2013-04-23 23:15:00,
2013-04-23 19:20:00,39.4,38.1,30.22,NW,305,9.0,9.0,95,0.00,,,0.00,Wunderground v.1.15,2013-04-23 23:20:00,
2013-04-23 19:25:00,39.4,38.1,30.22,NW,305,7.0,10.0,95,0.00,,,0.00,Wunderground v.1.15,2013-04-23 23:25:00,
2013-04-23 19:30:00,39.4,38.1,30.21,NW,319,4.0,6.0,95,0.00,,,0.00,Wunderground v.1.15,2013-04-23 23:30:00,
2013-04-23 19:35:00,39.4,38.1,30.21,NW,322,6.0,7.0,95,0.00,,,0.00,Wunderground v.1.15,2013-04-23 23:35:00,
2013-04-23 19:40:00,39.4,38.1,30.21,NNW,330,6.0,8.0,95,0.00,,,0.00,Wunderground v.1.15,2013-04-23 23:40:00,
2013-04-23 19:45:00,39.4,38.1,30.22,North,350,3.0,8.0,95,0.00,,,0.00,Wunderground v.1.15,2013-04-23 23:45:00,
2013-04-23 19:50:00,39.4,38.1,30.21,NNW,330,3.0,5.0,95,0.00,,,0.00,Wunderground v.1.15,2013-04-23 23:50:00,
2013-04-23 19:55:00,39.3,38.0,30.21,NW,312,4.0,7.0,95,0.00,,,0.00,Wunderground v.1.15,2013-04-23 23:55:00,
2013-04-23 20:00:00,39.3,38.0,30.20,NNW,335,7.0,7.0,95,0.00,,,0.00,Wunderground v.1.15,2013-04-24 00:00:00,
2013-04-23 20:05:00,39.2,37.9,30.20,NW,310,9.0,14.0,95,0.00,,,0.00,Wunderground v.1.15,2013-04-24 00:05:00,
2013-04-23 20:10:00,39.2,37.9,30.20,NW,314,4.0,7.0,95,0.00,,,0.00,Wunderground v.1.15,2013-04-24 00:10:00,
2013-04-23 20:15:00,39.2,37.9,30.19,NNE,16,8.0,8.0,95,0.00,,,0.00,Wunderground v.1.15,2013-04-24 00:15:00,
2013-04-23 20:20:00,39.2,37.9,30.19,WNW,297,2.0,6.0,95,0.00,,,0.00,Wunderground v.1.15,2013-04-24 00:20:00,
2013-04-23 20:25:00,39.1,38.1,30.19,NW,324,7.0,10.0,96,0.00,,,0.00,Wunderground v.1.15,2013-04-24 00:25:00,
2013-04-23 20:30:00,39.1,38.1,30.19,NNW,329,5.0,7.0,96,0.00,,,0.00,Wunderground v.1.15,2013-04-24 00:30:00,
2013-04-23 20:35:00,39.1,38.1,30.19,NW,323,3.0,7.0,96,0.00,,,0.00,Wunderground v.1.15,2013-04-24 00:35:00,
2013-04-23 20:40:00,39.1,38.1,30.18,NNW,340,2.0,5.0,96,0.00,,,0.00,Wunderground v.1.15,2013-04-24 00:40:00,
2013-04-23 20:45:00,39.1,38.1,30.18,NW,318,5.0,6.0,96,0.00,,,0.00,Wunderground v.1.15,2013-04-24 00:45:00,
2013-04-23 20:50:00,39.1,38.1,30.18,NW,319,7.0,9.0,96,0.00,,,0.00,Wunderground v.1.15,2013-04-24 00:50:00,
2013-04-23 20:55:00,39.1,38.1,30.19,WNW,297,4.0,9.0,96,0.00,,,0.00,Wunderground v.1.15,2013-04-24 00:55:00,
2013-04-23 21:00:00,39.0,38.0,30.18,NW,323,5.0,9.0,96,0.00,,,0.00,Wunderground v.1.15,2013-04-24 01:00:00,
2013-04-23 21:05:00,39.0,38.0,30.18,NW,308,7.0,9.0,96,0.00,,,0.00,Wunderground v.1.15,2013-04-24 01:05:00,
2013-04-23 21:10:00,39.0,38.0,30.18,North,358,7.0,7.0,96,0.00,,,0.00,Wunderground v.1.15,2013-04-24 01:10:00,
2013-04-23 21:15:00,39.0,38.0,30.18,NW,314,7.0,8.0,96,0.00,,,0.00,Wunderground v.1.15,2013-04-24 01:15:00,
2013-04-23 21:20:00,39.1,38.1,30.18,NW,311,4.0,5.0,96,0.00,,,0.00,Wunderground v.1.15,2013-04-24 01:20:00,
2013-04-23 21:25:00,39.0,38.0,30.18,NW,305,7.0,10.0,96,0.00,,,0.00,Wunderground v.1.15,2013-04-24 01:25:00,
2013-04-23 21:30:00,39.0,38.0,30.18,NW,312,4.0,5.0,96,0.00,,,0.00,Wunderground v.1.15,2013-04-24 01:30:00,
2013-04-23 21:35:00,39.0,38.0,30.17,North,1,8.0,8.0,96,0.00,,,0.00,Wunderground v.1.15,2013-04-24 01:35:00,
2013-04-23 21:40:00,39.0,38.0,30.17,NNW,335,6.0,6.0,96,0.00,,,0.00,Wunderground v.1.15,2013-04-24 01:40:00,
2013-04-23 21:46:00,39.0,38.0,30.17,NNW,338,5.0,8.0,96,0.00,,,0.00,Wunderground v.1.15,2013-04-24 01:46:00,
2013-04-23 21:51:00,38.9,37.9,30.16,NW,325,5.0,6.0,96,0.00,,,0.00,Wunderground v.1.15,2013-04-24 01:51:00,
2013-04-23 21:56:00,38.9,37.9,30.16,NW,307,6.0,8.0,96,0.00,,,0.00,Wunderground v.1.15,2013-04-24 01:56:00,
2013-04-23 22:01:00,38.9,37.9,30.16,WNW,293,8.0,10.0,96,0.00,,,0.00,Wunderground v.1.15,2013-04-24 02:01:00,
2013-04-23 22:06:00,38.9,37.9,30.16,NW,315,5.0,10.0,96,0.00,,,0.00,Wunderground v.1.15,2013-04-24 02:06:00,
2013-04-23 22:11:00,38.9,38.1,30.16,NNW,330,7.0,7.0,97,0.00,,,0.00,Wunderground v.1.15,2013-04-24 02:11:00,
2013-04-23 22:16:00,38.9,38.1,30.16,NW,313,7.0,8.0,97,0.00,,,0.00,Wunderground v.1.15,2013-04-24 02:16:00,
2013-04-23 22:21:00,38.9,38.1,30.16,NW,317,5.0,7.0,97,0.00,,,0.00,Wunderground v.1.15,2013-04-24 02:21:00,
2013-04-23 22:26:00,38.9,38.1,30.16,NW,307,7.0,9.0,97,0.00,,,0.00,Wunderground v.1.15,2013-04-24 02:26:00,
2013-04-23 22:31:00,38.9,38.1,30.16,WNW,303,10.0,11.0,97,0.00,,,0.00,Wunderground v.1.15,2013-04-24 02:31:00,
2013-04-23 22:37:00,38.9,38.1,30.16,NW,311,5.0,11.0,97,0.00,,,0.00,Wunderground v.1.15,2013-04-24 02:37:00,
2013-04-23 22:42:00,38.9,38.1,30.16,NW,315,4.0,7.0,97,0.00,,,0.00,Wunderground v.1.15,2013-04-24 02:42:00,
2013-04-23 22:47:00,38.9,38.1,30.15,NW,305,7.0,9.0,97,0.00,,,0.00,Wunderground v.1.15,2013-04-24 02:47:00,
2013-04-23 22:52:00,38.9,38.1,30.15,WNW,290,4.0,5.0,97,0.00,,,0.00,Wunderground v.1.15,2013-04-24 02:52:00,
2013-04-23 22:57:00,38.9,38.1,30.15,WNW,295,4.0,8.0,97,0.00,,,0.00,Wunderground v.1.15,2013-04-24 02:57:00,
2013-04-23 23:02:00,38.9,38.1,30.15,NW,319,5.0,10.0,97,0.00,,,0.00,Wunderground v.1.15,2013-04-24 03:02:00,
2013-04-23 23:07:00,38.9,38.1,30.14,NW,316,7.0,10.0,97,0.00,,,0.00,Wunderground v.1.15,2013-04-24 03:07:00,
2013-04-23 23:13:00,38.9,38.1,30.14,NW,312,7.0,7.0,97,0.00,,,0.00,Wunderground v.1.15,2013-04-24 03:13:00,
2013-04-23 23:18:00,38.9,38.1,30.13,NW,319,5.0,8.0,97,0.00,,,0.00,Wunderground v.1.15,2013-04-24 03:18:00,
2013-04-23 23:23:00,38.9,38.1,30.13,NW,318,7.0,9.0,97,0.00,,,0.00,Wunderground v.1.15,2013-04-24 03:23:00,
2013-04-23 23:28:00,38.9,38.1,30.13,NW,322,3.0,9.0,97,0.00,,,0.00,Wunderground v.1.15,2013-04-24 03:28:00,
2013-04-23 23:33:00,38.9,38.1,30.12,NNW,330,7.0,7.0,97,0.00,,,0.00,Wunderground v.1.15,2013-04-24 03:33:00,
2013-04-23 23:39:00,38.9,38.1,30.11,WNW,298,5.0,8.0,97,0.00,,,0.00,Wunderground v.1.15,2013-04-24 03:39:00,
2013-04-23 23:44:00,38.9,38.1,30.10,NW,321,6.0,6.0,97,0.00,,,0.00,Wunderground v.1.15,2013-04-24 03:44:00,
2013-04-23 23:49:00,38.9,38.1,30.09,NNW,348,7.0,8.0,97,0.00,,,0.00,Wunderground v.1.15,2013-04-24 03:49:00,
2013-04-23 23:54:00,39.0,38.2,30.09,NW,306,3.0,7.0,97,0.00,,,0.00,Wunderground v.1.15,2013-04-24 03:54:00,
2013-04-23 23:59:00,39.0,38.2,30.08,NNW,340,4.0,7.0,97,0.00,,,0.00,Wunderground v.1.15,2013-04-24 03:59:00,